Location: Ballingbuur
(53.0000°N, 5.7667°E)
Time: 06:39:21
(UTC+00:00)

Cosmos 1707 Rocket - Pass Details

Date: 29 November 2020
Orbit: 605 x 631 km, 82.5° (Epoch: 23 January)

Event Time Altitude Azimuth Distance (km) Brightness Sun altitude
Exits shadow 05:58:43 - 347° (NNW) 2,845 6.6 -12.3°
Reaches altitude 10° 06:00:50 10° 346° (NNW) 1,977 5.8 -12.0°
Maximum altitude 06:05:12 75° 262° (W) 635 3.5 -11.3°
Drops below altitude 10° 06:09:31 10° 177° (S) 1,953 6.5 -10.7°
Sets 06:11:43 0° 176° (S) 2,851 7.3 -10.4°
